Data No, UTC Date,UTC Time,Latitude,Longitude,Course(deg),Temp(degC),Sal(psu)
547,2020/12/25,9:06,42-36.93N,141-37.07E,209,6.462,33.2563
548,2020/12/25,9:07,42-36.70N,141-36.90E,208,6.655,33.3028
549,2020/12/25,9:08,42-36.44N,141-36.79E,190,7.181,33.3231
550,2020/12/25,9:09,42-36.18N,141-36.79E,177,7.573,33.3697
551,2020/12/25,9:10,42-35.90N,141-36.81E,175,7.779,33.5007
552,2020/12/25,9:11,42-35.61N,141-36.84E,175,7.958,33.6646
553,2020/12/25,9:12,42-35.34N,141-36.87E,176,8.094,33.7539
554,2020/12/25,9:13,42-35.05N,141-36.89E,175,8.231,33.7796
555,2020/12/25,9:14,42-34.77N,141-36.92E,176,8.343,33.8141
556,2020/12/25,9:15,42-34.49N,141-36.94E,176,8.439,33.8277
557,2020/12/25,9:16,42-34.20N,141-36.97E,174,8.33,33.8226
558,2020/12/25,9:17,42-33.92N,141-37.00E,175,8.427,33.8313
559,2020/12/25,9:18,42-33.64N,141-37.03E,176,8.569,33.8367
560,2020/12/25,9:19,42-33.36N,141-37.05E,175,8.636,33.8304
561,2020/12/25,9:20,42-33.07N,141-37.08E,175,8.713,33.8536
562,2020/12/25,9:21,42-32.75N,141-37.12E,175,8.798,33.8461
563,2020/12/25,9:22,42-32.45N,141-37.15E,175,8.89,33.8575
564,2020/12/25,9:23,42-32.17N,141-37.18E,175,8.937,33.8567
565,2020/12/25,9:24,42-31.87N,141-37.21E,175,8.941,33.8711
566,2020/12/25,9:25,42-31.61N,141-37.25E,174,8.885,33.8673
567,2020/12/25,9:26,42-31.33N,141-37.30E,171,8.941,33.8691
568,2020/12/25,9:27,42-31.05N,141-37.35E,171,9.061,33.8635
569,2020/12/25,9:28,42-30.77N,141-37.41E,170,9.131,33.8713
570,2020/12/25,9:29,42-30.49N,141-37.47E,171,9.202,33.8731
571,2020/12/25,9:30,42-30.21N,141-37.53E,170,9.242,33.8755
572,2020/12/25,9:31,42-29.92N,141-37.60E,170,9.241,33.8798
573,2020/12/25,9:32,42-29.64N,141-37.65E,171,9.206,33.8808
574,2020/12/25,9:33,42-29.35N,141-37.72E,170,9.216,33.8727
575,2020/12/25,9:34,42-29.06N,141-37.78E,171,9.242,33.8641
576,2020/12/25,9:35,42-28.79N,141-37.83E,172,9.309,33.8624
577,2020/12/25,9:36,42-28.50N,141-37.88E,172,9.36,33.8566
578,2020/12/25,9:37,42-28.22N,141-37.94E,171,9.431,33.8722
579,2020/12/25,9:38,42-27.94N,141-38.01E,169,9.547,33.8578
580,2020/12/25,9:39,42-27.65N,141-38.09E,168,9.671,33.871
581,2020/12/25,9:40,42-27.37N,141-38.17E,167,9.779,33.8761
582,2020/12/25,9:41,42-27.10N,141-38.24E,168,9.845,33.8935
583,2020/12/25,9:42,42-26.81N,141-38.32E,168,9.883,33.9044
584,2020/12/25,9:43,42-26.54N,141-38.40E,168,9.905,33.901
585,2020/12/25,9:44,42-26.26N,141-38.48E,167,9.934,33.9096
586,2020/12/25,9:45,42-25.98N,141-38.55E,168,9.951,33.9033
587,2020/12/25,9:46,42-25.70N,141-38.63E,168,9.974,33.8936
588,2020/12/25,9:47,42-25.43N,141-38.71E,168,9.969,33.9002
589,2020/12/25,9:48,42-25.15N,141-38.78E,170,10.016,33.9062
590,2020/12/25,9:49,42-24.88N,141-38.85E,169,10.072,33.9077
591,2020/12/25,9:50,42-24.60N,141-38.92E,169,10.184,33.8948
592,2020/12/25,9:51,42-24.32N,141-39.00E,168,10.228,33.8935
593,2020/12/25,9:52,42-24.05N,141-39.08E,168,10.229,33.9075
594,2020/12/25,9:53,42-23.77N,141-39.15E,169,10.223,33.91
595,2020/12/25,9:54,42-23.50N,141-39.20E,173,10.212,33.9037
596,2020/12/25,9:55,42-23.22N,141-39.22E,179,10.18,33.9022
597,2020/12/25,9:56,42-22.94N,141-39.20E,186,10.155,33.903
598,2020/12/25,9:57,42-22.67N,141-39.15E,187,10.135,33.9083
599,2020/12/25,9:58,42-22.39N,141-39.10E,187,10.094,33.9127
600,2020/12/25,9:59,42-22.11N,141-39.05E,188,10.053,33.8901
601,2020/12/25,10:00,42-21.83N,141-39.00E,186,10.046,33.892
602,2020/12/25,10:01,42-21.55N,141-38.96E,186,10.036,33.899
603,2020/12/25,10:02,42-21.27N,141-38.93E,185,10.035,33.8883
604,2020/12/25,10:03,42-20.99N,141-38.89E,186,10.048,33.9028
605,2020/12/25,10:04,42-20.71N,141-38.84E,187,10.051,33.8879
606,2020/12/25,10:05,42-20.43N,141-38.79E,186,10.066,33.8946
607,2020/12/25,10:06,42-20.15N,141-38.76E,185,9.998,33.9029
608,2020/12/25,10:07,42-19.87N,141-38.72E,186,9.947,33.8923
609,2020/12/25,10:08,42-19.58N,141-38.68E,186,9.939,33.9019
610,2020/12/25,10:09,42-19.31N,141-38.64E,185,9.893,33.8837
611,2020/12/25,10:10,42-19.03N,141-38.60E,186,9.86,33.8815
612,2020/12/25,10:11,42-18.74N,141-38.55E,186,9.821,33.8776
613,2020/12/25,10:12,42-18.46N,141-38.51E,186,9.787,33.8997
614,2020/12/25,10:13,42-18.18N,141-38.46E,186,9.771,33.8823
615,2020/12/25,10:14,42-17.90N,141-38.42E,187,9.762,33.8785
616,2020/12/25,10:15,42-17.62N,141-38.37E,186,9.768,33.8811
617,2020/12/25,10:16,42-17.35N,141-38.33E,186,9.784,33.8742
618,2020/12/25,10:17,42-17.07N,141-38.29E,186,9.803,33.8884
619,2020/12/25,10:18,42-16.80N,141-38.25E,186,9.81,33.8866
620,2020/12/25,10:19,42-16.52N,141-38.21E,186,9.861,33.8808
621,2020/12/25,10:20,42-16.25N,141-38.17E,183,9.892,33.8832
622,2020/12/25,10:21,42-15.97N,141-38.14E,185,9.904,33.8881
623,2020/12/25,10:22,42-15.70N,141-38.10E,187,9.915,33.8955
624,2020/12/25,10:23,42-15.42N,141-38.05E,187,9.917,33.9002
625,2020/12/25,10:24,42-15.15N,141-38.01E,185,9.911,33.8991
626,2020/12/25,10:25,42-14.88N,141-37.97E,186,9.896,33.8989
627,2020/12/25,10:26,42-14.60N,141-37.93E,186,9.875,33.8913
628,2020/12/25,10:27,42-14.33N,141-37.89E,186,9.856,33.8883
629,2020/12/25,10:28,42-14.05N,141-37.85E,186,9.829,33.8996
630,2020/12/25,10:29,42-13.77N,141-37.81E,187,9.803,33.9046
631,2020/12/25,10:30,42-13.50N,141-37.76E,186,9.783,33.8897
632,2020/12/25,10:31,42-13.22N,141-37.72E,187,9.759,33.8801
633,2020/12/25,10:32,42-12.95N,141-37.67E,188,9.746,33.8798
634,2020/12/25,10:33,42-12.67N,141-37.63E,185,9.731,33.8803
635,2020/12/25,10:34,42-12.40N,141-37.58E,187,9.712,33.8796
636,2020/12/25,10:35,42-12.12N,141-37.54E,187,9.68,33.8766
637,2020/12/25,10:36,42-11.84N,141-37.49E,187,9.661,33.8811
638,2020/12/25,10:37,42-11.56N,141-37.45E,185,9.593,33.8781
639,2020/12/25,10:38,42-11.28N,141-37.42E,184,9.436,33.8749
640,2020/12/25,10:39,42-11.00N,141-37.39E,184,9.396,33.8795
641,2020/12/25,10:40,42-10.72N,141-37.35E,187,9.429,33.8541
642,2020/12/25,10:41,42-10.44N,141-37.31E,185,9.489,33.8512
643,2020/12/25,10:42,42-10.16N,141-37.27E,186,9.597,33.8447
644,2020/12/25,10:43,42-09.89N,141-37.22E,187,9.692,33.8574
645,2020/12/25,10:44,42-09.60N,141-37.18E,186,9.801,33.8653
646,2020/12/25,10:45,42-09.32N,141-37.15E,184,9.918,33.8696
647,2020/12/25,10:46,42-09.03N,141-37.11E,186,10.024,33.8773
648,2020/12/25,10:47,42-08.75N,141-37.06E,186,10.106,33.8921
649,2020/12/25,10:48,42-08.42N,141-37.01E,187,10.175,33.9076
650,2020/12/25,10:49,42-08.15N,141-36.96E,186,10.218,33.9004
651,2020/12/25,10:50,42-07.90N,141-36.92E,187,10.252,33.9085
652,2020/12/25,10:51,42-07.62N,141-36.88E,186,10.279,33.9121
653,2020/12/25,10:52,42-07.30N,141-36.82E,189,10.3,33.9096
654,2020/12/25,10:53,42-07.03N,141-36.77E,187,10.332,33.9137
655,2020/12/25,10:54,42-06.74N,141-36.73E,186,10.353,33.917
656,2020/12/25,10:55,42-06.46N,141-36.69E,185,10.375,33.9202
657,2020/12/25,10:56,42-06.21N,141-36.65E,186,10.374,33.9234
658,2020/12/25,10:57,42-05.94N,141-36.60E,188,10.355,33.9247
659,2020/12/25,10:58,42-05.66N,141-36.54E,188,10.311,33.9331
660,2020/12/25,10:59,42-05.39N,141-36.49E,187,10.263,33.9218
661,2020/12/25,11:00,42-05.10N,141-36.45E,186,10.201,33.9221
662,2020/12/25,11:01,42-04.83N,141-36.42E,184,10.159,33.9207
663,2020/12/25,11:02,42-04.56N,141-36.39E,184,10.052,33.918
664,2020/12/25,11:03,42-04.29N,141-36.38E,181,9.785,33.9275
665,2020/12/25,11:04,42-04.01N,141-36.38E,179,9.643,33.9196
666,2020/12/25,11:05,42-03.73N,141-36.38E,179,9.572,33.9218
667,2020/12/25,11:06,42-03.45N,141-36.39E,179,9.502,33.9213
668,2020/12/25,11:07,42-03.18N,141-36.39E,180,9.484,33.9143
669,2020/12/25,11:08,42-02.89N,141-36.39E,180,9.459,33.9056
670,2020/12/25,11:09,42-02.61N,141-36.38E,180,9.225,33.9147
671,2020/12/25,11:10,42-02.34N,141-36.37E,182,9.183,33.9054
672,2020/12/25,11:11,42-02.07N,141-36.35E,182,9.185,33.9099
673,2020/12/25,11:12,42-01.78N,141-36.34E,182,9.176,33.905
674,2020/12/25,11:13,42-01.50N,141-36.34E,180,9.169,33.9009
675,2020/12/25,11:14,42-01.23N,141-36.33E,181,9.17,33.8905
676,2020/12/25,11:15,42-00.95N,141-36.32E,180,9.156,33.8857
677,2020/12/25,11:16,42-00.68N,141-36.32E,180,9.163,33.898
678,2020/12/25,11:17,42-00.40N,141-36.32E,181,9.159,33.8981
679,2020/12/25,11:18,42-00.13N,141-36.30E,182,9.162,33.8931
680,2020/12/25,11:19,41-59.86N,141-36.30E,180,9.175,33.8917
681,2020/12/25,11:20,41-59.59N,141-36.29E,181,9.188,33.8927
682,2020/12/25,11:21,41-59.31N,141-36.28E,182,9.192,33.8931
683,2020/12/25,11:22,41-59.04N,141-36.26E,182,9.182,33.8904
684,2020/12/25,11:23,41-58.76N,141-36.25E,183,9.169,33.891
685,2020/12/25,11:24,41-58.48N,141-36.24E,180,9.141,33.8959
686,2020/12/25,11:25,41-58.20N,141-36.23E,181,9.072,33.8947
687,2020/12/25,11:26,41-57.93N,141-36.23E,180,8.957,33.8985
688,2020/12/25,11:27,41-57.66N,141-36.22E,182,8.789,33.8959
689,2020/12/25,11:28,41-57.37N,141-36.21E,181,8.707,33.8883
690,2020/12/25,11:29,41-57.11N,141-36.20E,181,8.603,33.8818
691,2020/12/25,11:30,41-56.85N,141-36.20E,179,8.51,33.8739
692,2020/12/25,11:31,41-56.57N,141-36.21E,177,8.503,33.8703
693,2020/12/25,11:32,41-56.29N,141-36.23E,176,8.546,33.8671
694,2020/12/25,11:33,41-56.02N,141-36.25E,177,8.587,33.8707
695,2020/12/25,11:34,41-55.71N,141-36.26E,178,8.682,33.8741
696,2020/12/25,11:35,41-55.44N,141-36.25E,181,8.805,33.879
697,2020/12/25,11:36,41-55.15N,141-36.24E,181,8.898,33.8735
698,2020/12/25,11:37,41-54.91N,141-36.23E,181,8.994,33.88
699,2020/12/25,11:38,41-54.64N,141-36.23E,178,9.145,33.8919
700,2020/12/25,11:39,41-54.37N,141-36.24E,179,9.239,33.8829
701,2020/12/25,11:40,41-54.09N,141-36.24E,179,9.285,33.8886
702,2020/12/25,11:41,41-53.82N,141-36.25E,179,9.301,33.9028
703,2020/12/25,11:42,41-53.55N,141-36.25E,180,9.31,33.8935
704,2020/12/25,11:43,41-53.27N,141-36.26E,178,9.366,33.8957
705,2020/12/25,11:44,41-53.00N,141-36.26E,179,9.438,33.8915
706,2020/12/25,11:45,41-52.73N,141-36.28E,175,9.495,33.8978
707,2020/12/25,11:46,41-52.46N,141-36.30E,177,9.527,33.9042
708,2020/12/25,11:47,41-52.18N,141-36.32E,175,9.532,33.9064
709,2020/12/25,11:48,41-51.90N,141-36.34E,178,9.529,33.9011
710,2020/12/25,11:49,41-51.61N,141-36.36E,179,9.528,33.9094
711,2020/12/25,11:50,41-51.34N,141-36.37E,177,9.522,33.9016
712,2020/12/25,11:51,41-51.07N,141-36.39E,177,9.517,33.9027
713,2020/12/25,11:52,41-50.78N,141-36.40E,177,9.508,33.9042
714,2020/12/25,11:53,41-50.51N,141-36.42E,175,9.496,33.9018
715,2020/12/25,11:54,41-50.23N,141-36.43E,177,9.48,33.9033
716,2020/12/25,11:55,41-49.92N,141-36.45E,177,9.47,33.911
717,2020/12/25,11:56,41-49.63N,141-36.47E,177,9.453,33.9003
718,2020/12/25,11:57,41-49.39N,141-36.48E,177,9.431,33.9086
719,2020/12/25,11:58,41-49.11N,141-36.50E,176,9.412,33.9067
720,2020/12/25,11:59,41-48.83N,141-36.54E,174,9.4,33.9045
721,2020/12/25,12:00,41-48.54N,141-36.56E,177,9.392,33.9011
722,2020/12/25,12:01,41-48.26N,141-36.58E,177,9.389,33.9076
723,2020/12/25,12:02,41-47.99N,141-36.61E,170,9.937,33.9018
724,2020/12/25,12:03,41-47.71N,141-36.68E,169,11.251,33.9067
725,2020/12/25,12:04,41-47.44N,141-36.72E,175,11.559,33.8928
726,2020/12/25,12:05,41-47.14N,141-36.74E,175,11.886,33.8774
727,2020/12/25,12:06,41-46.86N,141-36.79E,172,12.07,33.8761
728,2020/12/25,12:07,41-46.59N,141-36.84E,173,12.151,33.8607
729,2020/12/25,12:08,41-46.31N,141-36.87E,174,12.186,33.8628
730,2020/12/25,12:09,41-46.04N,141-36.92E,171,12.226,33.8651
731,2020/12/25,12:10,41-45.77N,141-36.97E,171,12.252,33.8663
732,2020/12/25,12:11,41-45.49N,141-37.02E,174,12.348,33.868
733,2020/12/25,12:12,41-45.22N,141-37.03E,176,12.403,33.8728
734,2020/12/25,12:13,41-44.95N,141-37.06E,175,12.432,33.8782
735,2020/12/25,12:14,41-44.68N,141-37.12E,171,12.413,33.8757
736,2020/12/25,12:15,41-44.40N,141-37.16E,173,12.475,33.8758
737,2020/12/25,12:16,41-44.12N,141-37.21E,173,12.508,33.8847
738,2020/12/25,12:17,41-43.85N,141-37.25E,174,12.477,33.8828
739,2020/12/25,12:18,41-43.57N,141-37.29E,174,12.446,33.8858
740,2020/12/25,12:19,41-43.29N,141-37.32E,174,12.456,33.8778
741,2020/12/25,12:20,41-43.00N,141-37.35E,176,12.437,33.875
742,2020/12/25,12:21,41-42.73N,141-37.36E,178,12.456,33.8809
743,2020/12/25,12:22,41-42.45N,141-37.37E,179,12.49,33.8784
744,2020/12/25,12:23,41-42.17N,141-37.37E,180,12.48,33.8922
745,2020/12/25,12:24,41-41.90N,141-37.37E,178,12.486,33.8936
746,2020/12/25,12:25,41-41.62N,141-37.41E,173,12.517,33.879
747,2020/12/25,12:26,41-41.34N,141-37.45E,175,12.525,33.8856
748,2020/12/25,12:27,41-41.06N,141-37.46E,178,12.557,33.8876
749,2020/12/25,12:28,41-40.79N,141-37.47E,178,12.593,33.8811
750,2020/12/25,12:29,41-40.51N,141-37.48E,177,12.629,33.8852
751,2020/12/25,12:30,41-40.23N,141-37.52E,174,12.628,33.882
752,2020/12/25,12:31,41-39.94N,141-37.55E,175,12.634,33.8866
753,2020/12/25,12:32,41-39.66N,141-37.57E,178,12.644,33.8726
754,2020/12/25,12:33,41-39.37N,141-37.57E,178,12.645,33.8803
755,2020/12/25,12:34,41-39.09N,141-37.59E,177,12.662,33.8818
756,2020/12/25,12:35,41-38.81N,141-37.62E,175,12.641,33.8746
757,2020/12/25,12:36,41-38.52N,141-37.66E,174,12.651,33.8788
758,2020/12/25,12:37,41-38.23N,141-37.67E,178,12.653,33.8789
759,2020/12/25,12:38,41-37.95N,141-37.66E,182,12.637,33.8734
760,2020/12/25,12:39,41-37.66N,141-37.64E,183,12.612,33.8739
761,2020/12/25,12:40,41-37.39N,141-37.62E,183,12.597,33.8811
762,2020/12/25,12:41,41-37.14N,141-37.62E,179,12.596,33.8815
763,2020/12/25,12:42,41-36.85N,141-37.62E,181,12.579,33.8754
764,2020/12/25,12:43,41-36.57N,141-37.60E,181,12.586,33.8831
765,2020/12/25,12:44,41-36.27N,141-37.60E,179,12.572,33.8849
766,2020/12/25,12:45,41-36.00N,141-37.59E,182,12.578,33.8764
767,2020/12/25,12:46,41-35.70N,141-37.57E,182,12.572,33.8829
768,2020/12/25,12:47,41-35.42N,141-37.54E,185,12.569,33.8821
769,2020/12/25,12:48,41-35.13N,141-37.51E,184,12.577,33.8784
770,2020/12/25,12:49,41-34.83N,141-37.50E,181,12.6,33.8766
771,2020/12/25,12:50,41-34.55N,141-37.49E,182,12.598,33.8754
772,2020/12/25,12:51,41-34.26N,141-37.46E,183,12.613,33.8836
773,2020/12/25,12:52,41-33.97N,141-37.44E,184,12.649,33.8764
774,2020/12/25,12:53,41-33.68N,141-37.41E,184,12.699,33.8748
775,2020/12/25,12:54,41-33.39N,141-37.38E,185,12.725,33.8717
776,2020/12/25,12:55,41-33.11N,141-37.34E,184,12.752,33.8675
777,2020/12/25,12:56,41-32.81N,141-37.32E,184,12.789,33.8663
778,2020/12/25,12:57,41-32.52N,141-37.29E,184,12.805,33.8669
779,2020/12/25,12:58,41-32.24N,141-37.25E,186,12.819,33.8642
780,2020/12/25,12:59,41-31.94N,141-37.22E,182,12.827,33.8625
781,2020/12/25,13:00,41-31.65N,141-37.19E,185,12.832,33.8633
782,2020/12/25,13:01,41-31.36N,141-37.15E,185,12.84,33.8641
783,2020/12/25,13:02,41-31.06N,141-37.12E,184,12.847,33.8676
784,2020/12/25,13:03,41-30.76N,141-37.10E,181,12.863,33.8503
785,2020/12/25,13:04,41-30.46N,141-37.09E,181,12.863,33.8597
786,2020/12/25,13:05,41-30.17N,141-37.08E,181,12.861,33.8679
787,2020/12/25,13:06,41-29.86N,141-37.07E,181,12.862,33.8664
788,2020/12/25,13:07,41-29.56N,141-37.07E,179,12.862,33.869
789,2020/12/25,13:08,41-29.27N,141-37.08E,178,12.86,33.8545
790,2020/12/25,13:09,41-28.96N,141-37.09E,178,12.858,33.859
791,2020/12/25,13:10,41-28.66N,141-37.10E,179,12.861,33.8614
792,2020/12/25,13:11,41-28.36N,141-37.11E,178,12.87,33.8602
793,2020/12/25,13:12,41-28.07N,141-37.12E,179,12.879,33.8629
794,2020/12/25,13:13,41-27.76N,141-37.12E,180,12.89,33.8715
795,2020/12/25,13:14,41-27.47N,141-37.10E,183,12.889,33.8721
796,2020/12/25,13:15,41-27.17N,141-37.08E,181,12.889,33.8741
797,2020/12/25,13:16,41-26.88N,141-37.06E,182,12.883,33.8728
798,2020/12/25,13:17,41-26.57N,141-37.05E,182,12.885,33.8734
799,2020/12/25,13:18,41-26.28N,141-37.03E,181,12.889,33.8703
800,2020/12/25,13:19,41-25.99N,141-37.02E,181,12.888,33.868
801,2020/12/25,13:20,41-25.68N,141-37.02E,178,12.887,33.8707
802,2020/12/25,13:21,41-25.38N,141-37.04E,177,12.888,33.8717
803,2020/12/25,13:22,41-25.08N,141-37.05E,179,12.884,33.8682
804,2020/12/25,13:23,41-24.77N,141-37.04E,180,12.88,33.8714
805,2020/12/25,13:24,41-24.47N,141-37.05E,177,12.876,33.8713
806,2020/12/25,13:25,41-24.17N,141-37.08E,174,12.87,33.8809
807,2020/12/25,13:26,41-23.86N,141-37.14E,170,12.869,33.869
808,2020/12/25,13:27,41-23.57N,141-37.23E,167,12.861,33.869
809,2020/12/25,13:28,41-23.27N,141-37.32E,164,12.853,33.8714
810,2020/12/25,13:29,41-22.97N,141-37.43E,165,12.844,33.8765
811,2020/12/25,13:30,41-22.67N,141-37.53E,166,12.833,33.8749
812,2020/12/25,13:31,41-22.37N,141-37.63E,165,12.818,33.869
813,2020/12/25,13:32,41-22.08N,141-37.73E,165,12.808,33.8725
814,2020/12/25,13:33,41-21.78N,141-37.82E,168,12.796,33.8807
815,2020/12/25,13:34,41-21.48N,141-37.90E,168,12.791,33.8706
816,2020/12/25,13:35,41-21.18N,141-38.00E,164,12.787,33.8681
817,2020/12/25,13:36,41-20.86N,141-38.12E,164,12.783,33.871
818,2020/12/25,13:37,41-20.56N,141-38.23E,165,12.772,33.8677
819,2020/12/25,13:38,41-20.29N,141-38.33E,165,12.771,33.8708
820,2020/12/25,13:39,41-20.00N,141-38.42E,166,12.77,33.8863
821,2020/12/25,13:40,41-19.69N,141-38.51E,169,12.769,33.8687
822,2020/12/25,13:41,41-19.39N,141-38.58E,170,12.759,33.8816
823,2020/12/25,13:42,41-19.09N,141-38.65E,168,12.756,33.8767
824,2020/12/25,13:43,41-18.79N,141-38.75E,165,12.769,33.8705
825,2020/12/25,13:44,41-18.51N,141-38.86E,163,12.79,33.8689
826,2020/12/25,13:45,41-18.18N,141-39.00E,162,12.81,33.868
827,2020/12/25,13:46,41-17.89N,141-39.11E,164,12.814,33.8663
828,2020/12/25,13:47,41-17.59N,141-39.22E,165,12.821,33.8683
829,2020/12/25,13:48,41-17.33N,141-39.29E,168,12.822,33.8686
830,2020/12/25,13:49,41-17.05N,141-39.40E,163,12.826,33.8737
831,2020/12/25,13:50,41-16.71N,141-39.52E,165,12.815,33.8757
832,2020/12/25,13:51,41-16.42N,141-39.63E,164,12.817,33.8714
833,2020/12/25,13:52,41-16.14N,141-39.72E,166,12.804,33.8718
834,2020/12/25,13:53,41-15.87N,141-39.81E,166,12.81,33.8804
835,2020/12/25,13:54,41-15.57N,141-39.90E,166,12.806,33.8686
836,2020/12/25,13:55,41-15.28N,141-40.01E,163,12.798,33.8756
837,2020/12/25,13:56,41-14.98N,141-40.12E,165,12.792,33.8771
838,2020/12/25,13:57,41-14.67N,141-40.21E,169,12.787,33.8725
839,2020/12/25,13:58,41-14.37N,141-40.28E,168,12.782,33.8741
840,2020/12/25,13:59,41-14.08N,141-40.37E,167,12.773,33.8727
841,2020/12/25,14:00,41-13.77N,141-40.47E,165,12.77,33.8799
842,2020/12/25,14:01,41-13.48N,141-40.58E,166,12.768,33.8744
843,2020/12/25,14:02,41-13.18N,141-40.67E,166,12.771,33.8792
844,2020/12/25,14:03,41-12.90N,141-40.78E,162,12.778,33.8941
845,2020/12/25,14:04,41-12.60N,141-40.90E,162,12.77,33.8772
846,2020/12/25,14:05,41-12.31N,141-41.00E,167,12.761,33.884
847,2020/12/25,14:06,41-12.01N,141-41.09E,166,12.758,33.8878
848,2020/12/25,14:07,41-11.73N,141-41.20E,162,12.763,33.8801
849,2020/12/25,14:08,41-11.44N,141-41.32E,163,12.766,33.8766
850,2020/12/25,14:09,41-11.14N,141-41.43E,165,12.765,33.8753
851,2020/12/25,14:10,41-10.85N,141-41.52E,166,12.77,33.8754
852,2020/12/25,14:11,41-10.55N,141-41.62E,166,12.776,33.8883
853,2020/12/25,14:12,41-10.26N,141-41.72E,164,12.771,33.8786
854,2020/12/25,14:13,41-09.96N,141-41.84E,163,12.761,33.8794
855,2020/12/25,14:14,41-09.68N,141-41.94E,164,12.762,33.8784
856,2020/12/25,14:15,41-09.38N,141-42.04E,168,12.758,33.8826
857,2020/12/25,14:16,41-09.09N,141-42.12E,167,12.744,33.8846
858,2020/12/25,14:17,41-08.79N,141-42.21E,166,12.73,33.8829
859,2020/12/25,14:18,41-08.50N,141-42.31E,165,12.728,33.8844
860,2020/12/25,14:19,41-08.20N,141-42.42E,163,12.715,33.8866
861,2020/12/25,14:20,41-07.92N,141-42.54E,163,12.689,33.8888
862,2020/12/25,14:21,41-07.62N,141-42.65E,164,12.672,33.8822
863,2020/12/25,14:22,41-07.33N,141-42.74E,167,12.664,33.8888
864,2020/12/25,14:23,41-07.02N,141-42.83E,166,12.65,33.8928
865,2020/12/25,14:24,41-06.75N,141-42.93E,162,12.637,33.8928
866,2020/12/25,14:25,41-06.46N,141-43.05E,164,12.619,33.8905
867,2020/12/25,14:26,41-06.16N,141-43.14E,168,12.603,33.893
868,2020/12/25,14:27,41-05.87N,141-43.23E,166,12.589,33.8951
869,2020/12/25,14:28,41-05.58N,141-43.34E,162,12.583,33.8917
870,2020/12/25,14:29,41-05.30N,141-43.46E,163,12.559,33.8923
871,2020/12/25,14:30,41-05.01N,141-43.55E,167,12.548,33.8916
872,2020/12/25,14:31,41-04.71N,141-43.64E,166,12.535,33.8919
873,2020/12/25,14:32,41-04.42N,141-43.74E,164,12.525,33.898
874,2020/12/25,14:33,41-04.13N,141-43.85E,164,12.5,33.8928
875,2020/12/25,14:34,41-03.85N,141-43.96E,164,12.485,33.8888
876,2020/12/25,14:35,41-03.56N,141-44.06E,165,12.475,33.8919
877,2020/12/25,14:36,41-03.27N,141-44.15E,167,12.461,33.8903
878,2020/12/25,14:37,41-02.97N,141-44.25E,164,12.448,33.8961
879,2020/12/25,14:38,41-02.69N,141-44.37E,162,12.445,33.8919
880,2020/12/25,14:39,41-02.40N,141-44.49E,163,12.424,33.9017
881,2020/12/25,14:40,41-02.11N,141-44.60E,165,12.424,33.8884
882,2020/12/25,14:41,41-01.82N,141-44.69E,166,12.42,33.8895
883,2020/12/25,14:42,41-01.52N,141-44.78E,167,12.411,33.8884
884,2020/12/25,14:43,41-01.23N,141-44.87E,165,12.387,33.8944
885,2020/12/25,14:44,41-00.93N,141-44.97E,166,12.37,33.9023
886,2020/12/25,14:45,41-00.65N,141-45.08E,163,12.358,33.8915
887,2020/12/25,14:46,41-00.36N,141-45.20E,161,12.34,33.8894
888,2020/12/25,14:47,41-00.07N,141-45.31E,165,12.307,33.8947
889,2020/12/25,14:48,40-59.78N,141-45.41E,164,12.291,33.8957
890,2020/12/25,14:49,40-59.48N,141-45.53E,162,12.265,33.8854
891,2020/12/25,14:50,40-59.20N,141-45.66E,161,12.245,33.8887
892,2020/12/25,14:51,40-58.91N,141-45.77E,165,12.214,33.8822
893,2020/12/25,14:52,40-58.62N,141-45.88E,162,12.211,33.8944
894,2020/12/25,14:53,40-58.33N,141-45.99E,163,12.227,33.8911
895,2020/12/25,14:54,40-58.05N,141-46.13E,160,12.224,33.894
896,2020/12/25,14:55,40-57.76N,141-46.25E,162,12.213,33.8892
897,2020/12/25,14:56,40-57.47N,141-46.36E,165,12.225,33.902
898,2020/12/25,14:57,40-57.18N,141-46.46E,164,12.229,33.9086
899,2020/12/25,14:58,40-56.89N,141-46.57E,163,12.231,33.895
900,2020/12/25,14:59,40-56.62N,141-46.70E,160,12.263,33.9034
901,2020/12/25,15:00,40-56.33N,141-46.83E,161,12.274,33.8956
902,2020/12/25,15:01,40-56.06N,141-46.95E,161,12.275,33.8993
903,2020/12/25,15:02,40-55.77N,141-47.07E,164,12.287,33.8995
904,2020/12/25,15:03,40-55.47N,141-47.18E,163,12.303,33.8989
905,2020/12/25,15:04,40-55.20N,141-47.28E,165,12.302,33.8981
906,2020/12/25,15:05,40-54.90N,141-47.37E,168,12.305,33.9058
907,2020/12/25,15:06,40-54.61N,141-47.46E,166,12.312,33.8987
908,2020/12/25,15:07,40-54.32N,141-47.57E,163,12.308,33.9044
909,2020/12/25,15:08,40-54.04N,141-47.67E,164,12.308,33.9041
910,2020/12/25,15:09,40-53.76N,141-47.78E,165,12.311,33.9015
911,2020/12/25,15:10,40-53.47N,141-47.88E,166,12.319,33.9044
912,2020/12/25,15:11,40-53.17N,141-47.96E,168,12.324,33.9058
913,2020/12/25,15:12,40-52.88N,141-48.04E,168,12.331,33.8985
914,2020/12/25,15:13,40-52.60N,141-48.14E,164,12.33,33.903
915,2020/12/25,15:14,40-52.31N,141-48.26E,163,12.289,33.9082
916,2020/12/25,15:15,40-52.02N,141-48.35E,166,12.266,33.9048
917,2020/12/25,15:16,40-51.73N,141-48.43E,168,12.259,33.9017
918,2020/12/25,15:17,40-51.44N,141-48.52E,167,12.277,33.9067
919,2020/12/25,15:18,40-51.15N,141-48.62E,165,12.269,33.9029
920,2020/12/25,15:19,40-50.87N,141-48.70E,168,12.248,33.9103
921,2020/12/25,15:20,40-50.58N,141-48.81E,163,12.242,33.8992
922,2020/12/25,15:21,40-50.30N,141-48.91E,164,12.225,33.897
923,2020/12/25,15:22,40-50.00N,141-49.01E,166,12.203,33.9044
924,2020/12/25,15:23,40-49.72N,141-49.10E,167,12.139,33.9062
925,2020/12/25,15:24,40-49.43N,141-49.18E,165,12.121,33.9083
926,2020/12/25,15:25,40-49.14N,141-49.28E,165,12.127,33.9126
927,2020/12/25,15:26,40-48.86N,141-49.39E,162,12.132,33.9079
928,2020/12/25,15:27,40-48.58N,141-49.51E,164,12.127,33.903
929,2020/12/25,15:28,40-48.29N,141-49.61E,165,12.128,33.913
930,2020/12/25,15:29,40-48.00N,141-49.69E,168,12.147,33.9105
931,2020/12/25,15:30,40-47.72N,141-49.77E,165,12.188,33.9088
932,2020/12/25,15:31,40-47.44N,141-49.88E,162,12.205,33.9024
933,2020/12/25,15:32,40-47.16N,141-50.00E,163,12.224,33.9083
934,2020/12/25,15:33,40-46.88N,141-50.09E,166,12.238,33.9088
935,2020/12/25,15:34,40-46.60N,141-50.17E,167,12.239,33.9047
936,2020/12/25,15:35,40-46.31N,141-50.28E,163,12.221,33.9165